DL1DUR-2 Weather Reports


Display with metric or nautical units.
time (UTC)temp
F
wind
direction
speed
MPH
gust
MPH
rain 1hr
in
rain 24hr
in
rain mn
in
humidity
%
barometer
mb
20260505130204 75 266 4.0 11.0 0.00 0.00 0.00 52 1008.2
20260505124704 75 38 5.0 10.0 0.00 0.00 0.00 54 1008.3
20260505124205 74 269 4.0 10.0 0.00 0.00 0.00 54 1008.3
20260505123704 74 11 4.0 10.0 0.00 0.00 0.00 53 1008.3
20260505123205 75 51 3.0 9.0 0.00 0.00 0.00 50 1008.4
20260505122704 75 5 3.0 9.0 0.00 0.00 0.00 53 1008.5
20260505122205 75 14 4.0 9.0 0.00 0.00 0.00 55 1008.5
20260505121704 75 30 4.0 11.0 0.00 0.00 0.00 53 1008.5
20260505121204 75 15 4.0 11.0 0.00 0.00 0.00 54 1008.3
20260505120704 75 18 4.0 11.0 0.00 0.00 0.00 55 1008.4
20260505120204 74 349 4.0 10.0 0.00 0.00 0.00 54 1008.4
20260505115204 74 333 4.0 9.0 0.00 0.00 0.00 56 1008.4
20260505114704 74 46 4.0 14.0 0.00 0.00 0.00 57 1008.3
20260505114205 73 15 5.0 14.0 0.00 0.00 0.00 58 1008.4
20260505113704 74 26 6.0 14.0 0.00 0.00 0.00 57 1008.6
20260505112204 75 302 3.0 5.0 0.00 0.00 0.00 55 1008.5
20260505111704 74 295 3.0 5.0 0.00 0.00 0.00 53 1008.5
20260505111205 74 309 2.0 7.0 0.00 0.00 0.00 53 1008.6
20260505110704 74 5 3.0 7.0 0.00 0.00 0.00 54 1008.6
20260505110204 74 271 3.0 7.0 0.00 0.00 0.00 53 1008.6
20260505102204 74 9 2.0 4.0 0.00 0.00 0.00 52 1008.9
20260505101204 74 337 2.0 6.0 0.00 0.00 0.00 48 1009.0
20260505100704 74 97 2.0 6.0 0.00 0.00 0.00 49 1009.1
20260505095705 74 44 2.0 6.0 0.00 0.00 0.00 51 1009.2
20260505095204 74 41 2.0 6.0 0.00 0.00 0.00 53 1009.2
20260505094704 74 325 2.0 6.0 0.00 0.00 0.00 50 1009.3
20260505093204 74 327 2.0 6.0 0.00 0.00 0.00 54 1009.2
20260505092205 73 346 3.0 9.0 0.00 0.00 0.00 55 1009.2
20260505091704 73 23 3.0 9.0 0.00 0.00 0.00 55 1009.3
20260505091204 73 25 3.0 6.0 0.00 0.00 0.00 55 1009.4
20260505090704 73 355 3.0 6.0 0.00 0.00 0.00 54 1009.3
20260505090204 73 343 3.0 7.0 0.00 0.00 0.00 57 1009.4
20260505085204 72 0 3.0 6.0 0.00 0.00 0.00 57 1009.5
20260505084704 72 9 2.0 5.0 0.00 0.00 0.00 57 1009.5
20260505084204 72 22 2.0 5.0 0.00 0.00 0.00 56 1009.3
20260505083704 73 5 2.0 4.0 0.00 0.00 0.00 55 1009.5
20260505083204 72 62 2.0 4.0 0.00 0.00 0.00 58 1009.5
20260505082704 72 325 2.0 4.0 0.00 0.00 0.00 58 1009.5
20260505082204 71 328 2.0 4.0 0.00 0.00 0.00 58 1009.3
20260505081204 71 319 1.0 3.0 0.00 0.00 0.00 58 1009.6
20260505080704 71 68 1.0 4.0 0.00 0.00 0.00 58 1009.6
20260505080204 71 355 2.0 4.0 0.00 0.00 0.00 61 1009.6
20260505075704 70 84 2.0 4.0 0.00 0.00 0.00 62 1009.7
20260505072205 67 35 2.0 4.0 0.00 0.00 0.00 67 1009.7
20260505071704 66 18 2.0 4.0 0.00 0.00 0.00 70 1009.8
20260505071204 66 97 2.0 5.0 0.00 0.00 0.00 71 1009.7
20260505070704 65 32 2.0 5.0 0.00 0.00 0.00 72 1009.7
20260505070204 65 336 2.0 5.0 0.00 0.00 0.00 72 1009.7
20260505065704 65 19 3.0 5.0 0.00 0.00 0.00 73 1009.7
20260505064704 64 22 2.0 4.0 0.00 0.00 0.00 74 1009.6
20260505064204 63 17 1.0 4.0 0.00 0.00 0.00 75 1009.6
20260505063204 63 38 1.0 3.0 0.00 0.00 0.00 79 1009.7
20260505062704 62 326 1.0 3.0 0.00 0.00 0.00 80 1009.8
20260505062204 62 24 0.0 1.0 0.00 0.00 0.00 80 1009.6
20260505061204 60 209 0.0 2.0 0.00 0.00 0.00 80 1009.3
20260505060704 60 209 0.0 2.0 0.00 0.00 0.00 81 1009.2
20260505060204 59 209 0.0 2.0 0.00 0.00 0.00 83 1009.2
20260505055704 59 275 0.0 2.0 0.00 0.00 0.00 85 1009.1
20260505055204 58 299 1.0 2.0 0.00 0.00 0.00 87 1009.0
20260505054704 57 216 1.0 2.0 0.00 0.00 0.00 87 1009.0
20260505054204 57 216 1.0 2.0 0.00 0.00 0.00 88 1009.0
20260505053704 56 216 1.0 2.0 0.00 0.00 0.00 87 1009.0
20260505053204 56 216 1.0 2.0 0.00 0.00 0.00 87 1008.9
20260505052704 56 216 1.0 2.0 0.00 0.00 0.00 88 1008.9
20260505052203 56 306 1.0 2.0 0.00 0.00 0.00 88 1009.0
20260505051704 55 304 1.0 3.0 0.00 0.00 0.00 88 1009.0
20260505051204 55 304 1.0 3.0 0.00 0.00 0.00 88 1008.9
20260505050704 55 294 1.0 3.0 0.00 0.00 0.00 88 1008.8
20260505041704 53 302 0.0 2.0 0.00 0.00 0.00 88 1008.6
20260505041204 53 302 0.0 2.0 0.00 0.00 0.00 88 1008.7
20260505040704 53 302 1.0 2.0 0.00 0.00 0.00 88 1008.7
20260505040203 53 302 0.0 1.0 0.00 0.00 0.00 88 1008.8
20260505034204 53 302 1.0 2.0 0.00 0.00 0.00 87 1008.9
20260505033704 53 302 1.0 2.0 0.00 0.00 0.00 87 1008.9
20260505033204 53 302 0.0 1.0 0.00 0.00 0.00 87 1009.0
20260505031704 53 302 1.0 2.0 0.00 0.00 0.00 86 1009.1
20260505031204 53 302 1.0 2.0 0.00 0.00 0.00 86 1009.0
20260505030707 53 302 1.0 2.0 0.00 0.00 0.00 86 1009.1
20260505030204 54 273 1.0 2.0 0.00 0.00 0.00 86 1009.1
20260505025705 54 273 0.0 3.0 0.00 0.00 0.00 86 1009.2
20260505025204 54 273 1.0 3.0 0.00 0.00 0.00 86 1009.4
20260505024704 54 273 1.0 3.0 0.00 0.00 0.00 86 1009.5
20260505024204 54 273 0.0 1.0 0.00 0.00 0.00 86 1009.6
20260505023704 54 273 0.0 2.0 0.00 0.00 0.00 86 1009.7
20260505023204 54 273 1.0 2.0 0.00 0.00 0.00 85 1009.7
20260505022704 55 273 1.0 2.0 0.00 0.00 0.00 85 1009.9
20260505022205 55 273 1.0 2.0 0.00 0.00 0.00 85 1010.0
20260505021704 55 273 1.0 2.0 0.00 0.00 0.00 85 1010.0
20260505021204 55 291 1.0 2.0 0.00 0.00 0.00 86 1010.0
20260505020704 55 336 0.0 2.0 0.00 0.00 0.00 85 1010.1
20260505020204 55 338 1.0 2.0 0.00 0.00 0.00 85 1010.1
20260505015704 55 319 1.0 3.0 0.00 0.00 0.00 85 1010.2
20260505015204 55 319 1.0 5.0 0.00 0.00 0.00 85 1010.3
20260505014704 55 319 2.0 5.0 0.00 0.00 0.00 85 1010.4
20260505014204 55 319 3.0 5.0 0.00 0.00 0.00 85 1010.3
20260505013705 55 336 2.0 3.0 0.00 0.00 0.00 84 1010.3
20260505013204 55 325 1.0 1.0 0.00 0.00 0.00 84 1010.3
20260505012704 55 320 0.0 1.0 0.00 0.00 0.00 84 1010.4
20260505012204 55 320 0.0 2.0 0.00 0.00 0.00 84 1010.3
20260505011705 55 320 1.0 2.0 0.00 0.00 0.00 84 1010.3
20260505011204 55 320 1.0 2.0 0.00 0.00 0.00 84 1010.4
20260505010706 56 320 1.0 2.0 0.00 0.00 0.00 84 1010.4
20260505010203 56 288 1.0 2.0 0.00 0.00 0.00 84 1010.6
20260505005704 56 255 0.0 1.0 0.00 0.00 0.00 83 1010.6
20260505005205 56 255 0.0 2.0 0.00 0.00 0.00 83 1010.7
20260505004704 56 255 0.0 2.0 0.00 0.00 0.00 83 1010.8
20260505004204 56 255 0.0 2.0 0.00 0.00 0.00 83 1010.8
20260505003704 56 255 1.0 1.0 0.00 0.00 0.00 84 1010.8
20260505003204 56 255 0.0 1.0 0.00 0.00 0.00 84 1010.8
20260505002205 56 255 1.0 2.0 0.00 0.00 0.00 84 1010.8
20260505001704 56 255 0.0 2.0 0.00 0.00 0.00 84 1010.8
20260505000704 55 255 1.0 2.0 0.00 0.00 0.00 85 1011.0
20260505000204 55 255 1.0 2.0 0.00 0.00 0.00 84 1011.1
20260504235704 55 258 1.0 2.0 0.00 0.00 0.00 84 1011.2
20260504235204 55 261 1.0 2.0 0.00 0.00 0.00 84 1011.1
20260504234704 55 261 0.0 2.0 0.00 0.00 0.00 84 1011.1
20260504233704 55 261 1.0 2.0 0.00 0.00 0.00 85 1011.1
20260504233204 55 261 1.0 2.0 0.00 0.00 0.00 85 1011.1
20260504232704 55 261 1.0 2.0 0.00 0.00 0.00 85 1011.1
20260504232205 54 261 1.0 1.0 0.00 0.00 0.00 84 1011.1
20260504231704 54 261 0.0 1.0 0.00 0.00 0.00 85 1011.0
20260504230704 54 261 1.0 2.0 0.00 0.00 0.00 84 1011.1
20260504230205 54 261 1.0 2.0 0.00 0.00 0.00 84 1011.2
20260504225704 54 261 1.0 2.0 0.00 0.00 0.00 84 1011.3
20260504225204 54 261 0.0 1.0 0.00 0.00 0.00 85 1011.3
20260504224704 54 261 0.0 2.0 0.00 0.00 0.00 84 1011.3
20260504224204 54 261 1.0 2.0 0.00 0.00 0.00 84 1011.4
20260504223705 54 261 1.0 2.0 0.00 0.00 0.00 84 1011.4
20260504223205 54 261 1.0 2.0 0.00 0.00 0.00 84 1011.4
20260504222704 54 261 0.0 2.0 0.00 0.00 0.00 84 1011.4
20260504222204 54 261 0.0 2.0 0.00 0.00 0.00 83 1011.5
20260504221704 55 261 1.0 2.0 0.00 0.00 0.00 83 1011.5
20260504221204 55 261 1.0 2.0 0.00 0.00 0.00 83 1011.7
20260504220704 55 261 1.0 2.0 0.00 0.00 0.00 82 1011.8
20260504215704 55 261 0.0 2.0 0.00 0.00 0.00 82 1011.8
20260504215204 55 261 1.0 2.0 0.00 0.00 0.00 82 1011.8
20260504214704 56 261 1.0 2.0 0.00 0.00 0.00 82 1012.0
20260504214204 56 261 1.0 2.0 0.00 0.00 0.00 81 1012.1
20260504213704 56 261 1.0 2.0 0.00 0.00 0.00 82 1012.0
20260504213204 56 261 0.0 1.0 0.00 0.00 0.00 81 1012.0
20260504212704 56 261 0.0 1.0 0.00 0.00 0.00 81 1012.0
20260504212204 56 261 0.0 2.0 0.00 0.00 0.00 80 1012.1
20260504211204 57 261 1.0 2.0 0.00 0.00 0.00 80 1012.1
20260504210704 57 261 1.0 2.0 0.00 0.00 0.00 80 1012.2
20260504205704 58 261 1.0 2.0 0.00 0.00 0.00 79 1012.3
20260504205204 58 261 1.0 2.0 0.00 0.00 0.00 79 1012.2
20260504204704 58 261 1.0 2.0 0.00 0.00 0.00 78 1012.2
20260504204204 58 261 1.0 2.0 0.00 0.00 0.00 78 1012.3
20260504203704 59 261 1.0 2.0 0.00 0.00 0.00 78 1012.3
20260504203204 59 261 1.0 2.0 0.00 0.00 0.00 77 1012.3
20260504202204 59 261 1.0 2.0 0.00 0.00 0.00 77 1012.2
20260504201704 59 261 1.0 2.0 0.00 0.00 0.00 77 1012.2
20260504201204 59 261 0.0 2.0 0.00 0.00 0.00 77 1012.3
20260504200204 60 261 1.0 2.0 0.00 0.00 0.00 76 1012.3
20260504195204 60 261 1.0 2.0 0.00 0.00 0.00 76 1012.4
20260504194704 60 261 0.0 2.0 0.00 0.00 0.00 76 1012.3
20260504194204 60 261 0.0 2.0 0.00 0.00 0.00 75 1012.4
20260504193704 60 261 1.0 2.0 0.00 0.00 0.00 75 1012.3
20260504193204 61 261 1.0 2.0 0.00 0.00 0.00 74 1012.3
20260504192704 61 261 1.0 3.0 0.00 0.00 0.00 74 1012.4
20260504192204 61 261 1.0 3.0 0.00 0.00 0.00 73 1012.4
20260504191704 62 262 2.0 3.0 0.00 0.00 0.00 72 1012.4
20260504190705 63 262 2.0 3.0 0.00 0.00 0.00 71 1012.4
20260504190204 63 263 1.0 3.0 0.00 0.00 0.00 70 1012.4
20260504185704 64 271 1.0 3.0 0.00 0.00 0.00 70 1012.5
20260504185204 64 271 1.0 3.0 0.00 0.00 0.00 69 1012.4
20260504184704 65 289 1.0 3.0 0.00 0.00 0.00 68 1012.4
20260504184204 65 280 1.0 3.0 0.00 0.00 0.00 67 1012.5
20260504183704 66 280 2.0 3.0 0.00 0.00 0.00 66 1012.5
20260504183204 66 296 2.0 3.0 0.00 0.00 0.00 64 1012.4
20260504182204 67 296 2.0 5.0 0.00 0.00 0.00 63 1012.6
20260504181704 67 321 2.0 5.0 0.00 0.00 0.00 62 1012.5
20260504181205 68 325 3.0 4.0 0.00 0.00 0.00 61 1012.5
20260504180704 68 311 2.0 5.0 0.00 0.00 0.00 61 1012.4
20260504180204 69 325 2.0 5.0 0.00 0.00 0.00 60 1012.4
20260504175706 69 314 2.0 5.0 0.00 0.00 0.00 59 1012.4
20260504174704 70 316 3.0 10.0 0.00 0.00 0.00 58 1012.3
20260504173705 71 321 5.0 10.0 0.00 0.00 0.00 55 1012.4
20260504173204 71 325 4.0 10.0 0.00 0.00 0.00 53 1012.3
20260504172704 72 292 2.0 4.0 0.00 0.00 0.00 52 1012.4
20260504172204 72 238 2.0 4.0 0.00 0.00 0.00 48 1012.3
20260504171704 72 219 2.0 4.0 0.00 0.00 0.00 48 1012.3
20260504170704 72 232 2.0 4.0 0.00 0.00 0.00 47 1012.2
20260504170204 72 244 2.0 4.0 0.00 0.00 0.00 47 1012.2
20260504160204 74 169 2.0 6.0 0.00 0.00 0.00 45 1012.5
20260504150703 74 281 2.0 6.0 0.00 0.00 0.00 43 1012.6
20260504150205 74 269 3.0 10.0 0.00 0.00 0.00 42 1012.7
20260504141204 75 211 4.0 13.0 0.00 0.00 0.00 43 1013.2
20260504140704 75 201 5.0 13.0 0.00 0.00 0.00 42 1013.1
20260504140204 75 266 4.0 7.0 0.00 0.00 0.00 43 1013.2
20260504130704 74 180 4.0 14.0 0.00 0.00 0.00 44 1013.6